Home   Weather   Yonkers   Past weeks

Flag for USA Past Weather in Yonkers, New York, USA — Yesterday and Last 2 Weeks

Now
85 °F

Sunny.


Feels Like: 87 °F
Forecast: 68 / 82 °F
Wind: 7 mph from Southeast

Location: Teterboro Airport

Current Time: Sep 26, 2017 at 5:42:48 pm

Latest Report: Sep 26, 2017 at 4:51 pm


Visibility: 10 mi

Pressure: 29.95 "Hg

Humidity: 51%

Dew Point: 65 °F

Location of YonkersLocation

Past Weather in Yonkers — Graph

°F

Yonkers Temperature Yesterday

Maximum temperature yesterday: 89 °F (at 2:51 pm)
Minimum temperature yesterday: 68 °F (at 5:51 am)
Average temperature yesterday: 78 °F

High & Low Weather Summary for the Past Weeks

 TemperatureHumidityPressure
High91 °F (Sep 24, 2:51 pm)97% (Sep 14, 5:51 am)30.18 "Hg (Sep 14, 5:51 am)
Low56 °F (Sep 12, 4:51 am)25% (Sep 23, 4:51 pm)29.80 "Hg (Sep 20, 3:51 am)
Average74 °F69%30.00 "Hg
* Reported Sep 11 3:51 pm — Sep 26 3:51 pm, Yonkers. Weather by CustomWeather, © 2017

Note: Actual official high and low records may vary slightly from our data, if they occured in-between our weather recording intervals... More about our weather records

Advertising

Yonkers Weather History for the Previous 24 Hours

Scroll right to see more
 ConditionsComfort  
Time TempWeatherWind HumidityBarometerVisibility
3:51 pm
Tue, Sep 26
84 °FSunny.6 mph57%29.96 "Hg10 mi
2:51 pm83 °FSunny.8 mph59%29.97 "Hg10 mi
1:51 pm83 °FSunny.3 mph61%29.98 "Hg10 mi
12:51 pm81 °FSunny.5 mph65%30.01 "Hg10 mi
11:51 am80 °FSunny.5 mph67%30.02 "Hg10 mi
10:51 am78 °FSunny.3 mph69%30.04 "Hg8 mi
9:51 am76 °FHaze.No wind74%30.04 "Hg6 mi
9:21 am74 °FSunny.No wind79%30.05 "Hg6 mi
8:51 am71 °FPartly sunny.3 mph87%30.04 "Hg5 mi
7:51 am70 °FSunny.No wind87%30.03 "Hg10 mi
6:51 am68 °FSunny.5 mph93%30.03 "Hg10 mi
5:51 am68 °FClear.3 mph90%30.01 "Hg10 mi
4:51 am69 °FClear.No wind90%30.02 "Hg10 mi
3:51 am68 °FPassing clouds.No wind90%30.02 "Hg10 mi
2:51 am68 °FClear.3 mph90%30.03 "Hg10 mi
1:51 am69 °FClear.No wind87%30.03 "Hg10 mi
12:51 am71 °FClear.No wind81%30.01 "Hg10 mi
11:51 pm
Mon, Sep 25
71 °FClear.No wind81%30.02 "Hg10 mi
10:51 pm72 °FClear.No wind78%30.03 "Hg10 mi
9:51 pm73 °FClear.5 mph79%30.04 "Hg10 mi
8:51 pm74 °FClear.8 mph69%30.03 "Hg10 mi
7:51 pm78 °FClear.9 mph60%30.02 "Hg10 mi
6:51 pm81 °FClear.8 mph54%30.00 "Hg10 mi
5:51 pm88 °FSunny.8 mph40%29.99 "Hg10 mi
Weather by CustomWeather, © 2017

See weather overviewHow to use our weather pages